912  
ASUS44 KSJT 240215  
RWRSJT  
WEST CENTRAL TEXAS REGIONAL WEATHER ROUNDUP  
NATIONAL WEATHER SERVICE SAN ANGELO TX  
900 PM CDT TUE JUL 23 2019  
 
NOTE: "FAIR" INDICATES FEW OR NO CLOUDS BELOW 12,000 FEET WITH NO  
SIGNIFICANT WEATHER AND/OR S TO VISIBILITY
.  
 
TXZ049-054-064>066-071>073-076>078-098-099-113-114-127-128-139-140-  
154-155-168>170-240300   
..LOCATIONS ACROSS WEST CENTRAL TEXAS
 
 
 
CITY SKY/WX TMP DP RH WIND PRES REMARKS
 
SAN ANGELO CLEAR 80 52 37 NE7 30.14R  
ABILENE CLEAR 79 53 40 E7 30.15R  
DYESS AFB CLEAR 79 47 31 NE7 30.14R  
JUNCTION CLEAR 83 50 31 NE8 30.12R  
SWEETWATER CLEAR 76 47 34 CALM 30.19  
BROWNWOOD CLEAR 75 54 46 E5 30.13R  
COLEMAN CLEAR 77 51 39 NE6 30.15R  
SONORA CLEAR 81 48 32 NE5 30.19R  
OZONA FAIR 81 50 34 E8 30.17S  
BRADY CLEAR 77 50 38 NE6 30.13R  

 
 
TEXAS PANHANDLE/OKLAHOMA PANHANDLE  
 
CITY SKY/WX TMP DP RH WIND PRES REMARKS
 
AMARILLO CLEAR 78 51 38 E13 30.22S  
BORGER CLEAR 81 51 35 SE9 30.21S  
CANADIAN CLEAR 77 55 45 SE6 30.19S  
DALHART CLEAR 77 55 46 SE10 30.24R  
DUMAS CLEAR 76 52 42 E7 30.24S  
GUYMON NOT AVBL  
HEREFORD MOCLDY 80 53 38 SE8 30.24S  
PAMPA CLEAR 74 54 50 E8 30.23F  
PERRYTON CLEAR 77 52 41 SE9 30.21  

 
 
SOUTHERN PANHANDLE/SOUTH PLAINS/ROLLING PLAINS  
 
CITY SKY/WX TMP DP RH WIND PRES REMARKS
 
LUBBOCK PTCLDY 78 51 38 E9 30.21R  
SNYDER CLEAR 81 51 34 NE7 30.18  
CHILDRESS CLEAR 80 49 33 E6 30.17F  
SEMINOLE CLEAR 77 56 48 E7 30.25S  

 
 
PERMIAN BASIN  
 
CITY SKY/WX TMP DP RH WIND PRES REMARKS
 
MIDLAND CLEAR 80 57 45 E7 30.18R  
ODESSA CLEAR 79 56 45 E7 30.19R  
WINK CLEAR 84 53 34 E10 30.16R  

 
 
FAR WEST/SOUTHWEST MOUNTAINS/TRANS PECOS  
 
CITY SKY/WX TMP DP RH WIND PRES REMARKS
 
ALPINE CLEAR 76 50 39 E8 30.32S  
DRYDEN N/A 86 51 29 NE12 30.10R  
EL PASO PTCLDY 86 56 35 SE15 30.16R  
FORT STOCKTON CLEAR 81 56 42 E6 30.17R  
GUADALUPE PASS CLEAR 74 55 51 E24 30.31R  
MARFA CLEAR 74 51 44 NE10 30.29S  
PECOS CLEAR 85 52 31 E8 30.15S  

 
 
DALLAS/FORT WORTH METROPLEX  
 
CITY SKY/WX TMP DP RH WIND PRES REMARKS
 
DFW AIRPORT PTCLDY 80 57 45 NE8 30.06R  
FTW MEACHAM CLEAR 80 57 45 N8 30.08R  
DAL-EXECUTIVE PTCLDY 83 55 38 NE7 30.06R  
GRAND PRAIRIE CLEAR 83 53 35 NE7 30.08  
ADDISON CLEAR 84 54 34 NE7 30.08R  
MESQUITE MOCLDY 81 58 45 N3 30.07R  
LANCASTER PTCLDY 81 58 45 N5 30.07S  

 
 
NORTH CENTRAL TEXAS  
 
CITY SKY/WX TMP DP RH WIND PRES REMARKS
 
SHRMAN/DENISON CLEAR 78 62 58 N5 30.11R  
GAINESVILLE CLEAR 76 57 51 CALM 30.13R  
BRIDGEPORT CLEAR 77 57 49 CALM 30.13  
DENTON CLEAR 78 58 49 N6 30.09R  
WAXAHACHIE PTCLDY 80 58 47 CALM 30.09R  
GRANBURY CLEAR 82 57 41 N3 30.10S  

 
 
WESTERN NORTH TEXAS  
 
CITY SKY/WX TMP DP RH WIND PRES REMARKS
 
WICHITA FALLS CLEAR 78 56 46 E7 30.12R  
VERNON CLEAR 82 48 30 E5 30.15  
BRECKENRIDGE CLEAR 80 52 38 MISG 30.12S HAZE  
COMANCHE MOCLDY 75 58 54 N3 30.12S  

 
 
CENTRAL AND SOUTH CENTRAL TEXAS  
 
CITY SKY/WX TMP DP RH WIND PRES REMARKS
 
AUSTIN/BERGSTM MOCLDY 82 63 52 E7 30.04R  
WACO PTCLDY 80 58 46 NE5 30.05R  
HILLSBORO CLEAR 81 58 45 NE6 30.07R  
TEMPLE PTCLDY 79 60 52 NE5 30.07R  
KILLEEN-GRAY PTCLDY 79 58 48 N6 30.07  
FORT HOOD LGT RAIN 82 57 42 NE7 30.04R  
GEORGETOWN MOCLDY 83 60 45 NE5 30.08R  
LAGO VISTA CLOUDY 80 60 49 NE3 30.10R  
SAN MARCOS CLEAR 79 62 56 E5 30.05R  
NEW BRAUNFELS CLEAR 81 59 47 NE6 30.03R  
RANDOLPH AFB CLEAR 82 60 47 NE5 30.05R  
SAN ANTONIO MOCLDY 86 57 37 E9 30.05R  
STINSON CLEAR 87 53 31 E7 30.02R  
PLEASANTON NOT AVBL  
LA GRANGE CLEAR 83 65 55 CALM 30.02R  
GIDDINGS CLEAR 85 65 51 CALM 30.05R  

 
 
EAST TEXAS  
 
CITY SKY/WX TMP DP RH WIND PRES REMARKS
 
PARIS PTCLDY 79 61 53 NE8 30.09R  
CLARKSVILLE NOT AVBL  
TYLER CLEAR 79 63 57 NE5 30.06R  
LONGVIEW CLEAR 78 65 63 NE3 30.05R  
PALESTINE CLEAR 77 66 70 CALM 30.06R  
NACOGDOCHES CLEAR 78 64 61 N3 30.05R  

 
 
TEXAS HILL COUNTRY AND EDWARDS PLATEAU  
 
CITY SKY/WX TMP DP RH WIND PRES REMARKS
 
LLANO CLEAR 82 54 36 NE6 30.12R  
HORSESHOE BAY FAIR 82 54 36 NE3 30.09R  
KERRVILLE CLEAR 79 54 41 CALM 30.11R  
FREDERICKSBRG MOCLDY 80 51 36 E5 30.11R  
ROCKSPRINGS CLEAR 81 46 30 NE5 30.19R  
HONDO CLEAR 85 57 38 E9 30.05R  
UVALDE PTCLDY 84 55 36 E7 30.05R  
DEL RIO CLEAR 91 52 26 NE8 30.02R  

 
 
SOUTHEAST TEXAS  
 
CITY SKY/WX TMP DP RH WIND PRES REMARKS
 
COLLEGE STN CLEAR 83 64 52 NE9 30.04R  
CALDWELL CLEAR 81 64 57 NE3 30.05R  
CROCKETT CLEAR 75 66 73 CALM 30.07R  
BRENHAM CLEAR 82 65 57 CALM 30.04R  
HUNTSVILLE CLEAR 82 62 50 CALM 30.04R  
CONROE CLEAR 75 69 81 CALM 30.03R  
HOUSTON BUSH PTCLDY 82 65 56 N5 30.01R  
HOUSTON HOBBY MOCLDY 84 64 50 NE9 29.99R  
PERLAND FAIR 82 65 56 NE5 30.01R  
WHARTON PTCLDY 80 65 62 NE3 30.02R  

 
 
THE UPPER TEXAS COAST  
 
CITY SKY/WX TMP DP RH WIND PRES REMARKS
 
ORANGE FAIR 76 72 86 N3 30.01R  
PORT ARTHUR FAIR 81 68 64 N7 29.99R  
GALVESTON FAIR 84 67 56 N12 30.00R  
ANGLETON FAIR 81 70 69 NE6 30.00R  
BAY CITY FAIR 83 74 72 NE3 30.00R  

 
 
TEXAS COASTAL BEND, RIO GRANDE PLAINS DEEP SOUTH TEXAS  
 
CITY SKY/WX TMP DP RH WIND PRES REMARKS
 
VICTORIA CLEAR 80 70 71 NE6 30.00R  
BEEVILLE NOT AVBL  
ROCKPORT PTCLDY 80 76 87 CALM 29.98R  
PORT ARANSAS CLEAR 83 74 74 CALM 30.00R  
PORT LAVACA CLEAR 84 72 67 NE7 30.00R  
CORPUS CHRISTI CLOUDY 78 75 90 CALM 29.98R  
KINGSVILLE NAS MOCLDY 78 75 90 CALM 29.98  
COTULLA CLEAR 90 58 33 E8 30.00R  
LAREDO PTCLDY 82 70 66 NW3 30.00S  
BROWNSVILLE FAIR 82 77 84 E3 29.96R  
PORT ISABEL FAIR 81 73 76 E5 29.96S  
HEBBRONVILLE CLEAR 75 70 82 CALM 30.04R  
MCALLEN LGT RAIN 81 76 84 CALM 29.98R  
WESLACO NOT AVBL  
FALFURRIAS MOCLDY 80 75 85 SW3 29.99R  
EDINBURG CLEAR 79 74 85 N8 30.00R  

 
 
 
CLICK HERE TO GO TO PREVIOUS BULLETINS.

The Nexlab TX Page Main Text Page